Weather in Sarly

Russia / Republic of Tatarstan     54°57′29″N   53°27′52″E
temp.,
°C
wind,
m/s
gust,
m/s
humid.,
%
clouds,
%
prec.,
mm/h
press.,
hPa
HPBL,
m
24 may, tue
tue2400:00+6sse368499 0.0 1003132
03:00+5wsw258899 0.0 1004188
06:00+6wsw4786100 0.0 1005562
09:00+9wsw35615 0.0 10061196
12:00+12sw34495 0.0 10071653
15:00+13sw3445100 0.0 10071976
18:00+12ssw1161100 0.0 100715
21:00+8ese116198 0.0 100810
25 may, wed
wed2500:00+6sse117299 0.0 100810
03:00+5se2285100 0.0 100710
06:00+9ssw1276100 0.0 1007184
09:00+13ssw2256100 0.0 1006900
12:00+15ssw455695 0.4 10061550
15:00+12wsw6875100 1.6 1006970
18:00+7wsw6886100 0.3 1009844
21:00+6w4884100 0.3 1010560
26 may, thu
thu2600:00+4sw410897 0.1 1011270
03:00+2sw38915 0.1 1012189
06:00+6w69795 0.0 1013599
09:00+9w576698 0.0 10141226
12:00+10wsw4666100 0.0 10141337
15:00+10wsw366286 0.0 10151239
18:00+10sw36715 0.3 1014280
21:00+6ssw3482100 0.3 101463
27 may, fri
fri2700:00+5s3888100 0.0 1014162
03:00+5s41287100 0.0 1013263
06:00+8s71477100 0.0 1012526
09:00+13s91465100 0.0 1010879
12:00+15s101472100 0.1 10091573
15:00+12s91683100 0.6 10091037
18:00+12s8138563 0.0 1008851
21:00+11s6149479 0.1 1007441
28 may, sat
sat2800:00+10s61395100 0.4 1006635
03:00+9s379619 0.9 1007139
06:00+11sw5786100 0.0 1009630
09:00+12sw5683100 0.0 1010787
12:00+17sw686097 0.0 10111677
15:00+18sw696053 0.1 10111900
18:00+16s511715 0.0 1011475
21:00+13s6167551 0.0 1011437